This is the latest recevied weather packets stored in our database for station/object SP9SVH-2. If no packets are shown the sender has not sent any weather packets the latest 10 day(s).
| Time | Temp. | Humidity | Pressure | Rain* | Wind** | Luminosity | Snow |
|---|---|---|---|---|---|---|---|
| 1777643205 | 18.89° C | 3% | - | 0 mm | 0.89 m/s, 268° | - | - |
| 1777641255 | 19.44° C | 3% | - | 0 mm | 0.89 m/s, 236° | - | - |
| 1777640175 | 17.78° C | 4% | - | 0 mm | 1.79 m/s, 220° | - | - |
| 1777639020 | 17.22° C | 4% | - | 0 mm | 1.34 m/s, 311° | - | - |
| 1777637985 | 16.67° C | 4% | - | 0 mm | 0.45 m/s, 323° | - | - |
| 1777636991 | 15.56° C | 4% | - | 0 mm | 0.45 m/s, 279° | - | - |
| 1777635805 | 16.11° C | 4% | - | 0 mm | 0 m/s | - | - |
| 1777634616 | 16.67° C | 4% | - | 0 mm | 0 m/s | - | - |
| 1777633531 | 16.67° C | 4% | - | 0 mm | 0.89 m/s, 327° | - | - |
| 1777632491 | 16.67° C | 4% | - | 0 mm | 0.89 m/s, 11° | - | - |
| 1777631299 | 16.11° C | 4% | - | 0 mm | 0.45 m/s, 359° | - | - |
| 1777630295 | 17.22° C | 3% | - | 0 mm | 0 m/s | - | - |
| 1777629111 | 16.11° C | 4% | - | 0 mm | 0.45 m/s, 229° | - | - |
| 1777628085 | 15.56° C | 3% | - | 0 mm | 0.45 m/s, 335° | - | - |
| 1777627060 | 15° C | 4% | - | 0 mm | 1.34 m/s, 238° | - | - |
| 1777626076 | 15° C | 4% | - | 0 mm | 0.89 m/s, 213° | - | - |
| 1777624991 | 13.89° C | 4% | - | 0 mm | 0.45 m/s, 256° | - | - |
| 1777623980 | 13.33° C | 4% | - | 0 mm | 0 m/s | - | - |
| 1777621845 | 13.33° C | 4% | - | 0 mm | 0 m/s | - | - |
| 1777620800 | 11.67° C | 4% | - | 0 mm | 0 m/s | - | - |
| 1777619791 | 11.67° C | 4% | - | 0 mm | 1.34 m/s, 255° | - | - |
| 1777618611 | 11.11° C | 4% | - | 0 mm | 0 m/s | - | - |
| 1777617551 | 11.11° C | 4% | - | 0 mm | 0 m/s | - | - |
| 1777616471 | 9.44° C | 5% | - | 0 mm | 0 m/s | - | - |
| 1777615506 | 8.33° C | 4% | - | 0 mm | 0 m/s | - | - |
* Rain latest hour (hover to see other rain measurements)
** Current wind speed in m/s (hover to see current wind gust speed)